Location: Lane
(33.5226°N, 79.8788°W)
Time: 21:55:45
(UTC+00:00)

Vanguard 2 Rocket - Pass Details

Date: 09 October 2022
Orbit: 555 x 3321 km, 32.9° (Epoch: 28 November)

Event Time Altitude Azimuth Distance (km) Brightness Sun altitude
Rises 23:47:05 0° 217° (SW) 7,059 12.0 -11.8°
Reaches altitude 10° 23:52:04 10° 211° (SSW) 6,190 11.5 -12.8°
Maximum altitude 00:10:25 44° 148° (SSE) 3,924 9.8 -16.6°
Enters shadow 00:20:54 23° 94° (E) 4,461 9.7 -18.8°
